| time (UTC) | temp C | wind direction | speed KPH | gust KPH | rain 1hr cm | rain 24hr cm | rain mn cm | humidity % | barometer mb |
| 20260506041520 | 21 | 202 | 6.4 | 11.3 | 0.00 | 0.03 | 0.00 | 51 | 1012.1 |
| 20260506040525 | 21 | 226 | 8.0 | 11.3 | 0.00 | 0.03 | 0.00 | 51 | 1012.0 |
| 20260506035524 | 21 | 194 | 6.4 | 11.3 | 0.00 | 0.03 | 0.03 | 50 | 1012.0 |
| 20260506034516 | 21 | 206 | 6.4 | 9.7 | 0.00 | 0.03 | 0.03 | 50 | 1012.2 |
| 20260506033521 | 21 | 207 | 6.4 | 9.7 | 0.00 | 0.03 | 0.03 | 49 | 1012.0 |
| 20260506032520 | 22 | 197 | 8.0 | 11.3 | 0.00 | 0.03 | 0.03 | 48 | 1011.9 |
| 20260506031519 | 22 | 198 | 9.7 | 16.1 | 0.00 | 0.03 | 0.03 | 47 | 1012.0 |
| 20260506030517 | 22 | 196 | 9.7 | 14.5 | 0.00 | 0.03 | 0.03 | 47 | 1012.0 |
| 20260506025517 | 22 | 200 | 9.7 | 16.1 | 0.00 | 0.03 | 0.03 | 47 | 1012.1 |
| 20260506024547 | 22 | 184 | 8.0 | 14.5 | 0.00 | 0.03 | 0.03 | 47 | 1012.1 |
| 20260506023532 | 22 | 184 | 8.0 | 16.1 | 0.00 | 0.03 | 0.03 | 47 | 1012.1 |
| 20260506022519 | 22 | 179 | 8.0 | 12.9 | 0.00 | 0.03 | 0.03 | 47 | 1012.2 |
| 20260506021523 | 22 | 206 | 9.7 | 19.3 | 0.00 | 0.03 | 0.03 | 47 | 1012.2 |
| 20260506020529 | 22 | 177 | 11.3 | 16.1 | 0.00 | 0.03 | 0.03 | 47 | 1012.1 |
| 20260506015533 | 22 | 176 | 9.7 | 14.5 | 0.00 | 0.03 | 0.03 | 47 | 1011.9 |
| 20260506014520 | 22 | 167 | 11.3 | 17.7 | 0.00 | 0.03 | 0.03 | 47 | 1011.9 |
| 20260506013524 | 22 | 185 | 6.4 | 11.3 | 0.00 | 0.03 | 0.03 | 48 | 1011.8 |
| 20260506012529 | 22 | 214 | 8.0 | 12.9 | 0.00 | 0.03 | 0.03 | 47 | 1011.6 |
| 20260506011516 | 22 | 183 | 11.3 | 17.7 | 0.00 | 0.03 | 0.03 | 48 | 1011.5 |
| 20260506010541 | 22 | 210 | 6.4 | 12.9 | 0.00 | 0.03 | 0.03 | 49 | 1011.5 |
| 20260506005545 | 22 | 181 | 4.8 | 11.3 | 0.00 | 0.03 | 0.03 | 49 | 1011.5 |
| 20260506004530 | 22 | 195 | 4.8 | 9.7 | 0.00 | 0.03 | 0.03 | 49 | 1011.4 |
| 20260506003517 | 23 | 197 | 6.4 | 9.7 | 0.00 | 0.03 | 0.03 | 48 | 1011.2 |
| 20260506002542 | 23 | 183 | 8.0 | 11.3 | 0.00 | 0.03 | 0.03 | 47 | 1011.1 |
| 20260506001526 | 23 | 188 | 11.3 | 17.7 | 0.00 | 0.03 | 0.03 | 47 | 1011.1 |
| 20260506000611 | 24 | 180 | 9.7 | 12.9 | 0.00 | 0.03 | 0.03 | 46 | 1011.0 |
| 20260505235538 | 24 | 196 | 8.0 | 17.7 | 0.00 | 0.03 | 0.03 | 47 | 1010.7 |
| 20260505234524 | 24 | 183 | 11.3 | 14.5 | 0.00 | 0.03 | 0.03 | 47 | 1010.7 |
| 20260505233528 | 24 | 173 | 11.3 | 16.1 | 0.00 | 0.03 | 0.03 | 47 | 1010.6 |
| 20260505232554 | 25 | 178 | 11.3 | 19.3 | 0.00 | 0.03 | 0.03 | 46 | 1010.5 |
| 20260505231519 | 25 | 237 | 9.7 | 12.9 | 0.00 | 0.03 | 0.03 | 46 | 1010.5 |
| 20260505230524 | 25 | 173 | 14.5 | 22.5 | 0.00 | 0.03 | 0.03 | 46 | 1010.5 |
| 20260505225530 | 25 | 186 | 9.7 | 14.5 | 0.00 | 0.03 | 0.03 | 47 | 1010.4 |
| 20260505224516 | 25 | 176 | 11.3 | 20.9 | 0.00 | 0.03 | 0.03 | 46 | 1010.5 |
| 20260505223541 | 25 | 225 | 9.7 | 11.3 | 0.00 | 0.03 | 0.03 | 43 | 1010.5 |
| 20260505222525 | 26 | 183 | 11.3 | 17.7 | 0.00 | 0.03 | 0.03 | 42 | 1010.4 |
| 20260505221529 | 26 | 218 | 14.5 | 24.1 | 0.00 | 0.03 | 0.03 | 41 | 1010.4 |
| 20260505220518 | 26 | 208 | 12.9 | 22.5 | 0.00 | 0.03 | 0.03 | 41 | 1010.5 |
| 20260505215521 | 26 | 177 | 11.3 | 16.1 | 0.00 | 0.03 | 0.03 | 41 | 1010.4 |
| 20260505214526 | 27 | 197 | 14.5 | 22.5 | 0.00 | 0.03 | 0.03 | 41 | 1010.4 |
| 20260505213531 | 27 | 177 | 12.9 | 24.1 | 0.00 | 0.03 | 0.03 | 42 | 1010.4 |
| 20260505212518 | 27 | 212 | 14.5 | 29.0 | 0.00 | 0.03 | 0.03 | 43 | 1010.4 |
| 20260505211523 | 27 | 158 | 14.5 | 24.1 | 0.00 | 0.03 | 0.03 | 43 | 1010.4 |
| 20260505210527 | 28 | 215 | 11.3 | 20.9 | 0.00 | 0.03 | 0.03 | 43 | 1010.3 |
| 20260505205532 | 28 | 166 | 12.9 | 19.3 | 0.00 | 0.03 | 0.03 | 43 | 1010.5 |
| 20260505204520 | 28 | 215 | 9.7 | 16.1 | 0.00 | 0.03 | 0.03 | 44 | 1010.5 |
| 20260505203524 | 28 | 270 | 14.5 | 14.5 | 0.00 | 0.03 | 0.03 | 45 | 1010.5 |
| 20260505202528 | 27 | 197 | 11.3 | 19.3 | 0.00 | 0.03 | 0.03 | 45 | 1010.6 |
| 20260505201015 | 27 | 192 | 14.5 | 27.4 | 0.00 | 0.03 | 0.03 | 46 | 1010.8 |
| 20260505200020 | 28 | 162 | 12.9 | 20.9 | 0.00 | 0.03 | 0.03 | 46 | 1010.9 |
| 20260505195025 | 27 | 190 | 17.7 | 22.5 | 0.00 | 0.03 | 0.03 | 47 | 1011.0 |
| 20260505194030 | 27 | 189 | 14.5 | 22.5 | 0.00 | 0.03 | 0.03 | 48 | 1011.0 |
| 20260505193016 | 27 | 203 | 14.5 | 24.1 | 0.00 | 0.03 | 0.03 | 48 | 1011.3 |
| 20260505192021 | 27 | 177 | 11.3 | 19.3 | 0.00 | 0.03 | 0.03 | 47 | 1011.3 |
| 20260505191047 | 27 | 176 | 11.3 | 19.3 | 0.00 | 0.03 | 0.03 | 47 | 1011.5 |
| 20260505190030 | 27 | 178 | 12.9 | 19.3 | 0.00 | 0.03 | 0.03 | 47 | 1011.5 |
| 20260505185022 | 27 | 206 | 16.1 | 25.7 | 0.00 | 0.03 | 0.03 | 47 | 1011.6 |
| 20260505184022 | 27 | 189 | 11.3 | 17.7 | 0.00 | 0.03 | 0.03 | 49 | 1011.6 |
| 20260505183028 | 28 | 232 | 14.5 | 24.1 | 0.00 | 0.03 | 0.03 | 47 | 1011.7 |
| 20260505182031 | 28 | 224 | 11.3 | 16.1 | 0.00 | 0.03 | 0.03 | 47 | 1011.9 |
| 20260505181039 | 28 | 235 | 12.9 | 20.9 | 0.00 | 0.03 | 0.03 | 47 | 1012.1 |
| 20260505180023 | 27 | 234 | 14.5 | 25.7 | 0.00 | 0.03 | 0.03 | 47 | 1012.0 |
| 20260505175027 | 27 | 225 | 11.3 | 16.1 | 0.00 | 0.03 | 0.03 | 47 | 1012.1 |
| 20260505174026 | 28 | 233 | 11.3 | 22.5 | 0.00 | 0.03 | 0.03 | 48 | 1012.1 |
| 20260505173039 | 26 | 199 | 14.5 | 24.1 | 0.00 | 0.03 | 0.03 | 47 | 1012.1 |
| 20260505172024 | 27 | 211 | 9.7 | 14.5 | 0.00 | 0.03 | 0.03 | 48 | 1012.2 |
| 20260505171044 | 27 | 270 | 17.7 | 24.1 | 0.00 | 0.03 | 0.03 | 48 | 1012.4 |
| 20260505170016 | 27 | 199 | 14.5 | 20.9 | 0.00 | 0.03 | 0.03 | 47 | 1012.7 |
| 20260505165041 | 27 | 220 | 12.9 | 17.7 | 0.00 | 0.03 | 0.03 | 48 | 1012.9 |
| 20260505164019 | 27 | 218 | 12.9 | 20.9 | 0.00 | 0.03 | 0.03 | 49 | 1013.0 |
| 20260505163038 | 26 | 231 | 16.1 | 25.7 | 0.00 | 0.03 | 0.03 | 49 | 1013.2 |
| 20260505162017 | 26 | 248 | 17.7 | 25.7 | 0.00 | 0.03 | 0.03 | 50 | 1013.2 |
| 20260505161015 | 26 | 247 | 17.7 | 25.7 | 0.00 | 0.03 | 0.03 | 50 | 1013.3 |
| 20260505153024 | 25 | 226 | 14.5 | 19.3 | 0.03 | 0.03 | 0.03 | 55 | 1013.5 |
| 20260505152027 | -17 | 113 | 11.3 | 11.3 | 0.03 | 0.03 | 0.03 | 1013.7 | |
| 20260505151032 | 25 | 235 | 14.5 | 22.5 | 0.03 | 0.03 | 0.03 | 56 | 1013.5 |
| 20260505125028 | 21 | 209 | 12.9 | 16.1 | 0.00 | 0.00 | 0.00 | 60 | 1013.9 |
| 20260505124033 | 21 | 211 | 9.7 | 19.3 | 0.00 | 0.00 | 0.00 | 61 | 1013.9 |
| 20260505123019 | 20 | 198 | 8.0 | 12.9 | 0.00 | 0.00 | 0.00 | 63 | 1013.9 |
| 20260505122025 | 20 | 161 | 8.0 | 11.3 | 0.00 | 0.00 | 0.00 | 65 | 1014.0 |
| 20260505121029 | 19 | 224 | 6.4 | 12.9 | 0.00 | 0.00 | 0.00 | 67 | 1014.0 |
| 20260505120015 | 18 | 236 | 8.0 | 12.9 | 0.00 | 0.00 | 0.00 | 68 | 1013.9 |
| 20260505115020 | 18 | 213 | 6.4 | 9.7 | 0.00 | 0.00 | 0.00 | 68 | 1013.8 |
| 20260505114024 | 18 | 219 | 6.4 | 8.0 | 0.00 | 0.00 | 0.00 | 69 | 1013.7 |
| 20260505113029 | 17 | 210 | 4.8 | 9.7 | 0.00 | 0.00 | 0.00 | 70 | 1013.7 |
| 20260505112016 | 17 | 194 | 8.0 | 12.9 | 0.00 | 0.00 | 0.00 | 69 | 1013.5 |
| 20260505111042 | 17 | 189 | 6.4 | 9.7 | 0.00 | 0.00 | 0.00 | 69 | 1013.5 |
| 20260505102028 | 17 | 191 | 8.0 | 9.7 | 0.00 | 0.00 | 0.00 | 72 | 1013.2 |
| 20260505101032 | 16 | 220 | 8.0 | 9.7 | 0.00 | 0.00 | 0.00 | 73 | 1013.2 |
| 20260505100019 | 16 | 223 | 4.8 | 6.4 | 0.00 | 0.00 | 0.00 | 74 | 1013.0 |
| 20260505095043 | 16 | 227 | 4.8 | 8.0 | 0.00 | 0.00 | 0.00 | 73 | 1013.0 |
| 20260505094028 | 16 | 244 | 6.4 | 8.0 | 0.00 | 0.00 | 0.00 | 72 | 1013.0 |
| 20260505093027 | 17 | 219 | 4.8 | 8.0 | 0.00 | 0.00 | 0.00 | 70 | 1012.8 |
| 20260505092019 | 17 | 168 | 8.0 | 12.9 | 0.00 | 0.00 | 0.00 | 70 | 1013.0 |
| 20260505091044 | 17 | 214 | 6.4 | 9.7 | 0.00 | 0.00 | 0.00 | 70 | 1012.8 |
| 20260505090023 | 17 | 211 | 8.0 | 11.3 | 0.00 | 0.00 | 0.00 | 69 | 1012.7 |
| 20260505085037 | 17 | 200 | 8.0 | 14.5 | 0.00 | 0.00 | 0.00 | 69 | 1012.8 |
| 20260505084021 | 17 | 236 | 8.0 | 16.1 | 0.00 | 0.00 | 0.00 | 69 | 1012.8 |
| 20260505083019 | -17 | 0.0 | 0.0 | 0.00 | 0.00 | 0.00 | 1012.7 | ||
| 20260505082018 | 18 | 206 | 6.4 | 9.7 | 0.00 | 0.00 | 0.00 | 68 | 1012.7 |
| 20260505081140 | 18 | 216 | 6.4 | 11.3 | 0.00 | 0.00 | 0.00 | 67 | 1012.5 |
| 20260505080036 | 18 | 214 | 9.7 | 19.3 | 0.00 | 0.00 | 0.00 | 67 | 1012.5 |
| 20260505075026 | 18 | 224 | 8.0 | 12.9 | 0.00 | 0.00 | 0.00 | 66 | 1012.4 |
| 20260505074031 | 18 | 197 | 8.0 | 12.9 | 0.00 | 0.00 | 0.00 | 65 | 1012.4 |
| 20260505073019 | 18 | 230 | 8.0 | 12.9 | 0.00 | 0.00 | 0.00 | 65 | 1012.4 |
| 20260505072023 | 18 | 192 | 11.3 | 19.3 | 0.00 | 0.00 | 0.00 | 64 | 1012.3 |
| 20260505071028 | 18 | 228 | 9.7 | 16.1 | 0.00 | 0.00 | 0.00 | 64 | 1012.1 |
| 20260505070032 | 18 | 195 | 11.3 | 20.9 | 0.00 | 0.00 | 0.00 | 64 | 1012.2 |
| 20260505065020 | 18 | 197 | 9.7 | 14.5 | 0.00 | 0.00 | 0.00 | 64 | 1012.4 |
| 20260505064024 | 18 | 178 | 8.0 | 17.7 | 0.00 | 0.00 | 0.00 | 64 | 1012.4 |
| 20260505063028 | 18 | 203 | 9.7 | 14.5 | 0.00 | 0.00 | 0.00 | 66 | 1012.4 |
| 20260505062015 | 18 | 223 | 8.0 | 14.5 | 0.00 | 0.00 | 0.00 | 66 | 1012.5 |
| 20260505061020 | 18 | 223 | 8.0 | 11.3 | 0.00 | 0.00 | 0.00 | 66 | 1012.5 |
| 20260505060024 | 18 | 206 | 8.0 | 11.3 | 0.00 | 0.00 | 0.00 | 66 | 1012.6 |
| 20260505055029 | 18 | 197 | 6.4 | 14.5 | 0.00 | 0.00 | 0.00 | 67 | 1012.6 |
| 20260505054016 | 18 | 173 | 6.4 | 12.9 | 0.00 | 0.00 | 0.00 | 68 | 1012.7 |
| 20260505053022 | 18 | 211 | 8.0 | 16.1 | 0.00 | 0.00 | 0.00 | 67 | 1012.7 |
| 20260505052026 | 18 | 214 | 6.4 | 11.3 | 0.00 | 0.00 | 0.00 | 67 | 1012.6 |
| 20260505051052 | 18 | 235 | 4.8 | 9.7 | 0.00 | 0.00 | 0.00 | 66 | 1012.5 |